Regional Weather Roundup
Issued by NWS

Home | Current Version | Previous Version | Text Only | Print | Product List | Glossary Off
Versions: 1 2 3 4 5 6 7 8 9 10 11 12 13 14 15 16 17 18 19 20 21 22 23 24 25 26 27

000
ASUS45 KBOU 211507
RWRCO

WEATHER ROUNDUP FOR COLORADO
NATIONAL WEATHER SERVICE DENVER/BOULDER CO
900 AM MDT SUN MAY 21 2017

NOTE: "FAIR" INDICATES FEW OR NO CLOUDS BELOW 12000 FEET WITH NO
SIGNIFICANT WEATHER AND/OR OBSTRUCTIONS TO VISIBILITY.

COZ001>005-013-030-031-211600-
...NORTHWEST COLORADO...

CITY           SKY/WX    TMP DP  RH WIND       PRES   REMARKS
CRAIG          FAIR      49  33  54 E13       30.23S
HAYDEN         PTSUNNY   45  30  57 E10       30.24S
MEEKER         FAIR      49  32  52 CALM      30.23S
RABBIT EARS PA FAIR      32  27  80 W5        30.33S WCI  27
STEAMBOAT SPGS PTSUNNY   41  33  74 CALM      30.25F
WALDEN           N/A     41  28  60 S5        30.28F
$$

COZ006>008-011-211600-
...WEST CENTRAL VALLEYS...

CITY           SKY/WX    TMP DP  RH WIND       PRES   REMARKS
GRAND JUNCTION FAIR      55  33  43 SE8       30.20R
MONTROSE       FAIR      51  29  42 CALM      30.25R
EAGLE          SUNNY     43  30  61 CALM      30.31F
RIFLE          FAIR      48  32  53 CALM      30.24S
DELTA          FAIR      52  32  46 CALM      30.24R
NUCLA          FAIR      50  30  46 SE6       30.26S
$$

COZ017>023-064>068-211600-
...SOUTHWEST COLORADO...

CITY           SKY/WX    TMP DP  RH WIND       PRES   REMARKS
DURANGO        FAIR      51  28  41 CALM      30.24R
CORTEZ         FAIR      51  31  46 E3        30.22S
PAGOSA SPRINGS FAIR      49  24  36 CALM      30.27S
TELLURIDE      FAIR      42  23  46 CALM      30.33S
WOLF CREEK PAS FAIR      32  18  55 S3        30.44R
$$

COZ009-010-012-014-032>034-037-058>063-211600-
...CENTRAL COLORADO...

CITY           SKY/WX    TMP DP  RH WIND       PRES   REMARKS
ASPEN          FAIR      45  25  45 N5        30.26F
BUENA VISTA    FAIR      45  21  38 CALM      30.29S
COPPER MTN     FAIR      32  21  64 NW7       30.38S WCI  26
BERTHOUD PASS  FAIR      23  10  58 NW12      30.38R WCI  12
COTTONWOOD PAS FAIR      41  19  42 CALM      30.33S
GUNNISON       FAIR      40  26  57 CALM      30.31F
KREMMLING      FAIR      43  34  70 CALM      30.31F
LEADVILLE      FAIR      35  19  52 CALM      30.32S
MONARCH PASS   FAIR      32  14  47 CALM      30.48S
SALIDA         FAIR      46  25  44 CALM      30.35F
SUNLIGHT       FAIR      34  19  55 CALM      30.40R
WILKERSON PASS FAIR      34  19  55 N6        30.38S WCI  29
$$

COZ069>075-211600-
...SAN LUIS VALLEY/SANGRE DE CRISTO MOUNTAINS...

CITY           SKY/WX    TMP DP  RH WIND       PRES   REMARKS
ALAMOSA        FAIR      48  28  46 SE7       30.26S
DEL NORTE      FAIR      47  25  41 CALM      30.28S
LA VETA PASS   FAIR      39  27  60 SW3       30.44R
SAGUACHE       FAIR      48  23  37 NW12      30.28S
$$

COZ035-036-038>040-211600-
...NORTHERN COLORADO FRONT RANGE...

CITY           SKY/WX    TMP DP  RH WIND       PRES   REMARKS
DENVER INTL AP FAIR      55  32  41 W7        30.21R
DMNS CITY PARK   N/A     54  31  40 N7G13     30.20S
AURORA         MOSUNNY   53  33  45 CALM      30.21S
FRONT RANGE AP MOSUNNY   57  36  44 SW7       30.22R
ERIE MUNI ARPT FAIR      53  36  53 CALM      30.21R
BOULDER MUN AP FAIR      54  34  47 CALM      30.20S
CENTENNIAL     FAIR      53  31  42 W3        30.21S
BROOMFIELD     NOT AVBL
FORT COLLINS   FAIR      54  40  59 NE5       30.21S
LONGMONT       FAIR      57  38  48 CALM      30.22R
$$

COZ041-046-047-076>085-087-088-211600-
...PIKES PEAK/PALMER DIVIDE AND SOUTHERN FOOTHILLS...

CITY           SKY/WX    TMP DP  RH WIND       PRES   REMARKS
COLO. SPRINGS  FAIR      54  34  46 VRB3      30.24R
A. F. ACADEMY  FAIR      52  32  47 S6        30.23S
SCHRIEVER AFB  FAIR      53  33  46 SE8       30.24S
CHEYENNE MTN   FAIR      51  33  50 NE5       30.19R
ELLICOTT       PTSUNNY  N/A N/A N/A S8        30.22S
FALCON         FAIR      51  31  45 S7        30.26S
FORT CARSON    FAIR      55  33  43 S5        30.22R
LIMON          FAIR      56  37  49 S13       30.22S
MONUMENT HILL  FAIR      50  32  50 SW6       30.25S
CANON CITY     NOT AVBL
WALSENBURG     FAIR      55  39  54 N3        30.23S
TRINIDAD       FAIR      55  34  45 SW3       30.21S
$$

COZ042>045-048>051-090-091-211600-
...NORTHEAST COLORADO...

CITY           SKY/WX    TMP DP  RH WIND       PRES   REMARKS
GREELEY ARPT   FAIR      49  42  77 CALM      30.22R
AKRON          FAIR      55  37  50 NW8       30.20R
BURLINGTON     FAIR      61  43  51 SW12      30.20R
WRAY           FAIR      59  43  55 NW5       30.19R
YUMA           FAIR      54  36  50 W8        30.19R
STERLING       FAIR      52  45  76 CALM      30.18S
HOLYOKE        NOT AVBL
FORT MORGAN    PTSUNNY   53  40  62 CALM      30.21R
$$

COZ086-089-092>099-211600-
...SOUTHEAST COLORADO...

CITY           SKY/WX    TMP DP  RH WIND       PRES   REMARKS
PUEBLO         FAIR      57  37  47 CALM      30.19S
LA JUNTA       FAIR      59  39  47 VRB3      30.18S
LAMAR          CLOUDY    57  43  59 SE7       30.17S
SPRINGFIELD      N/A     57  40  52 S20       30.19F
$$




USA.gov is the U.S. government's official web portal to all federal, state and local government web resources and services.